ARIANE 5 DEB (SYLDA), 41947

Orbit data source: Space-Track

ARIANE 5 DEB (SYLDA), 41947 is space debris in HEO originally from a launch on Tue, 14 Feb 2017 UTC launched from the French Guiana (FRGUI). Debris objects in space refer to the collection of defunct objects orbiting the Earth. Examples of debris include non-operational satellites, rocket bodies, and fragments generated from explosions, collisions, or faulty payload assembly.

Loading next visibility...
ARIANE 5 DEB (SYLDA) details
Identifier
41947, 2017-007D
Orbit
HEO
Last TLE update21 hours ago
Origin
Flag of FRArianespace (FR)
ManufacturerADS/Bremen
MissionSpacecraft
Bus & MotorSYLDA 5, Unknown motor
Mass440 kg wet, 440 kg dry
Launch date (UTC)
2017-02-14 (8 years ago)
Launch vehicleUnknown
Launch site
French Guiana (FRGUI)
Object type
Payload
Rocket body
Debris
Shape & HBRCyl, 5.5 m
Radar Cross Section27.391 m², Large (>1 m²)

Expand to show TLE details & history

TLE from 21 hours ago
0 ARIANE 5 DEB (SYLDA)
1 41947U 17007D   24339.50582814  .00125741  00000-0  11085-1 0  9990
2 41947   3.8712 148.9970 5499067  90.2506 329.5831  4.85395617 81422
Epoch: 2024-12-04T12:08Z
Definitive object data (Epoch: 2024-12-04T12:08:23.551Z)
Latitude-0°
Longitude-106.93577°
Altitude3,923.048 km
Speed7.095 km/s
True Right ascension09h 55m 50s
True Declination0° 00' 00"
Sunlit
Object was in daylight at TLE epoch
Visualization TLE readout
Latitude-3.23351°
Longitude128.59077°
Altitude12,186.27 km
Speed3.986 km/s
Apparent Right ascension00h 38m 24s
Apparent Declination-15° 01' 19"
Sunlit
Object is in daylight
Visualization observer readout
Local Sidereal Time07:32:41
Azimuth266.746° W
Elevation-19.885°
Doppler factor1
Orbital elements
Apogee altitude16,467.009 km
Perigee altitude256.099 km
Semi-major axis14,739.691 km
Eccentricity0.5499067
Inclination3.8712°
RAAN148.997°
Arg. of periapsis90.2506°
True anomaly269.84019°
Mean anomaly329.5831°
Eccentric anomaly303.22703°
Mean motion1.21286 °/min
BSTAR0.011085
Orbital period296.82 mins
Loading maneuver chart data...
Loading historical data...
Loading historical data...
Loading historical data...
Loading historical data...
Loading historical data...
Loading historical data...
Loading historical data...
Other satellites on launch #7 in the year 2017 (2017-02-14 UTC)

ARIANE 5 DEB (SYLDA) Visibility forecast

Observer location: undefined°, undefined

Span
Click to sort rows by Start time (UTC) header in descending order
Start Az.
Max El. time (UTC)
Max El. Az.
Max El.
End time (UTC)
End Az.
20 mins2024-12-05 12:33:26.480Z226.763° WSW2024-12-05 12:46:26.480Z209.885° SW11.792°2024-12-05 12:53:26.480Z193.065° SSW
35 mins2024-12-05 23:33:26.480Z171.455° S2024-12-05 23:43:26.480Z149.875° SSE13.47°2024-12-06 00:08:26.480Z127.71° SE
207 mins2024-12-06 04:56:26.480Z228.425° WSW2024-12-06 06:56:26.480Z185.373° SSW28.132°2024-12-06 08:23:26.480Z136.155° SSE
|